Location: Tamazert
(32.6352°N, 5.2072°W)
Time: 03:59:35
(UTC+00:00)

Lacrosse 5 rocket - Pass Details

Date: 22 May 2022
Orbit: 457 x 629 km, 57.0° (Epoch: 24 June)

Event Time Altitude Azimuth Distance (km) Brightness Sun altitude
Exits shadow 03:26:32 49° 291° (WNW) 654 1.4 -20.4°
Maximum altitude 03:26:52 51° 311° (NW) 640 1.5 -20.3°
Drops below altitude 10° 03:30:46 10° 28° (NNE) 1,774 5.0 -19.7°
Sets 03:33:06 0° 34° (NE) 2,701 6.3 -19.3°
